Change the Weather History Date:

Thursday, December 6, 2012

  Actual Average Record
Temperature  
Mean Temperature 31 °F -  
Max Temperature 37 °F 36 °F 60 °F (1998)
Min Temperature 25 °F 23 °F -5 °F (1964)
Degree Days  
Heating Degree Days 34    
Moisture  
Dew Point 27 °F    
Average Humidity 81    
Maximum Humidity 90    
Minimum Humidity 67    
Precipitation  
Precipitation 0.00 in - - ()
Sea Level Pressure  
Sea Level Pressure 30.11 in    
Wind  
Wind Speed 6 mph (SSE)    
Max Wind Speed 13 mph    
Max Gust Speed 18 mph    
Visibility 10 miles    
Events      
Averages and records for this station are not official NWS values.
T = Trace of Precipitation, MM = Missing Value Source: NWS Daily Summary

Daily Weather History Graph

Daily Weather History Graph

Search for Another Location

Airport or City:

Trip Planner

Search our weather history database for the weather conditions in past years. The results will help you decide how hot, cold, wet, or windy it might be!

Date:

Astronomy

Dec. 06, 2012 Rise Set
Actual Time 7:56 AM EST 5:03 PM EST
Civil Twilight 7:24 AM EST 5:35 PM EST
Nautical Twilight 6:48 AM EST 6:11 PM EST
Astronomical Twilight 6:14 AM EST 6:45 PM EST
Moon 12:00 AM EST (12/6) 12:39 PM EST (12/6)
Length of Visible Light 10h 10m
Length of Day
9h 06m
Waning Gibbous, 49% of the Moon is Illuminated
Dec 6
Waning Gibbous
Dec 13
New
Dec 20
First Quarter
Dec 28
Full
Jan 4
Last Quarter

Hourly Weather History & Observations

Time (EST) Temp. Windchill Dew Point Humidity Pressure Visibility Wind Dir Wind Speed Gust Speed Precip Events Conditions
12:12 AM 27.3 °F 20.9 °F 22.8 °F 83% 30.32 in 10.0 mi ESE 5.8 mph - N/A   Clear
12:32 AM 27.3 °F 19.9 °F 23.0 °F 84% 30.32 in 10.0 mi ESE 6.9 mph - N/A   Clear
12:52 AM 26.8 °F 20.2 °F 23.0 °F 86% 30.31 in 10.0 mi SE 5.8 mph - N/A   Clear
1:12 AM 26.6 °F 19.1 °F 23.0 °F 86% 30.29 in 10.0 mi ESE 6.9 mph - N/A   Clear
1:33 AM 26.6 °F 19.1 °F 23.0 °F 86% 30.28 in 10.0 mi SE 6.9 mph - N/A   Clear
1:53 AM 26.2 °F 19.6 °F 23.0 °F 88% 30.29 in 10.0 mi ESE 5.8 mph - N/A   Clear
2:13 AM 25.7 °F 20.1 °F 23.0 °F 89% 30.29 in 10.0 mi ESE 4.6 mph - N/A   Clear
2:33 AM 26.4 °F 19.8 °F 23.4 °F 88% 30.28 in 10.0 mi ESE 5.8 mph - N/A   Clear
2:53 AM 26.6 °F 21.2 °F 23.5 °F 88% 30.28 in 10.0 mi SE 4.6 mph - N/A   Clear
3:13 AM 27.0 °F 23.0 °F 23.9 °F 88% 30.28 in 10.0 mi SE 3.5 mph - N/A   Clear
3:33 AM 27.3 °F 22.0 °F 24.4 °F 89% 30.28 in 10.0 mi South 4.6 mph - N/A   Clear
3:54 AM 27.3 °F 23.4 °F 24.1 °F 88% 30.28 in 10.0 mi South 3.5 mph - N/A   Clear
4:14 AM 27.1 °F 21.8 °F 24.4 °F 90% 30.28 in 10.0 mi SE 4.6 mph - N/A   Clear
4:34 AM 27.1 °F 23.2 °F 24.1 °F 88% 30.28 in 10.0 mi ESE 3.5 mph - N/A   Clear
4:54 AM 27.3 °F - 23.9 °F 87% 30.27 in 10.0 mi Calm Calm - N/A   Clear
5:14 AM 27.3 °F 22.0 °F 24.3 °F 88% 30.26 in 10.0 mi ESE 4.6 mph - N/A   Clear
5:34 AM 27.0 °F 20.5 °F 23.9 °F 88% 30.26 in 10.0 mi ESE 5.8 mph - N/A   Clear
5:54 AM 26.6 °F 19.1 °F 23.9 °F 90% 30.25 in 10.0 mi ESE 6.9 mph - N/A   Clear
6:14 AM 26.6 °F 19.1 °F 23.7 °F 89% 30.24 in 10.0 mi ESE 6.9 mph - N/A   Clear
6:35 AM 26.6 °F 19.1 °F 23.9 °F 90% 30.23 in 10.0 mi ESE 6.9 mph - N/A   Clear
7:15 AM 27.1 °F 20.7 °F 24.3 °F 89% 30.21 in 10.0 mi SE 5.8 mph - N/A   Clear
7:35 AM 27.5 °F 21.1 °F 24.6 °F 89% 30.21 in 10.0 mi SE 5.8 mph - N/A   Clear
7:55 AM 27.5 °F 22.2 °F 24.8 °F 90% 30.20 in 10.0 mi SSE 4.6 mph - N/A   Clear
8:15 AM 27.5 °F 23.6 °F 24.8 °F 90% 30.20 in 10.0 mi SSE 3.5 mph - N/A   Clear
8:35 AM 28.2 °F 23.1 °F 25.5 °F 90% 30.21 in 10.0 mi South 4.6 mph - N/A   Clear
8:50 AM 28.4 °F 21.2 °F 25.7 °F 90% 30.19 in 10.0 mi SSE 6.9 mph - N/A   Clear
9:10 AM 29.1 °F 25.4 °F 26.1 °F 88% 30.19 in 10.0 mi SSE 3.5 mph - N/A   Clear
9:31 AM 29.7 °F 22.8 °F 26.4 °F 88% 30.18 in 10.0 mi South 6.9 mph - N/A   Mostly Cloudy
10:11 AM 31.6 °F 26.0 °F 27.3 °F 84% 30.17 in 10.0 mi South 5.8 mph - N/A   Scattered Clouds
10:31 AM 32.4 °F 24.6 °F 27.3 °F 82% 30.17 in 10.0 mi South 9.2 mph - N/A   Scattered Clouds
10:51 AM 32.5 °F 23.7 °F 27.1 °F 80% 30.17 in 10.0 mi South 11.5 mph 17.3 mph N/A   Scattered Clouds
11:11 AM 32.5 °F 23.2 °F 26.6 °F 79% 30.16 in 10.0 mi South 12.7 mph 18.4 mph N/A   Overcast
11:31 AM 32.9 °F 24.1 °F 26.6 °F 78% 30.14 in 10.0 mi South 11.5 mph - N/A   Mostly Cloudy
11:51 AM 33.3 °F 25.7 °F 27.0 °F 78% 30.13 in 10.0 mi South 9.2 mph - N/A   Mostly Cloudy
12:12 PM 33.8 °F 24.8 °F 26.4 °F 74% 30.11 in 10.0 mi South 12.7 mph - N/A   Scattered Clouds
12:32 PM 34.7 °F 27.5 °F 26.2 °F 71% 30.09 in 10.0 mi South 9.2 mph - N/A   Scattered Clouds
12:52 PM 34.9 °F 26.2 °F 26.4 °F 71% 30.08 in 10.0 mi South 12.7 mph 17.3 mph N/A   Scattered Clouds
1:12 PM 35.8 °F 29.4 °F 26.8 °F 70% 30.07 in 10.0 mi South 8.1 mph - N/A   Scattered Clouds
1:32 PM 36.0 °F 29.0 °F 26.4 °F 68% 30.06 in 10.0 mi South 9.2 mph - N/A   Scattered Clouds
1:52 PM 36.5 °F 31.0 °F 27.0 °F 68% 30.04 in 10.0 mi South 6.9 mph - N/A   Mostly Cloudy
2:12 PM 36.9 °F 30.7 °F 27.3 °F 68% 30.03 in 10.0 mi SSE 8.1 mph - N/A   Overcast
2:32 PM 37.0 °F 31.6 °F 27.3 °F 68% 30.02 in 10.0 mi SSE 6.9 mph - N/A   Overcast
2:52 PM 37.4 °F 33.8 °F 27.7 °F 68% 30.02 in 10.0 mi South 4.6 mph - N/A   Overcast
3:13 PM 37.4 °F 32.8 °F 27.5 °F 67% 30.03 in 10.0 mi SSW 5.8 mph - N/A   Overcast
3:33 PM 37.6 °F 32.3 °F 28.4 °F 69% 30.01 in 10.0 mi SSE 6.9 mph - N/A   Mostly Cloudy
3:53 PM 37.4 °F 29.8 °F 28.6 °F 70% 29.97 in 10.0 mi SE 11.5 mph - N/A   Mostly Cloudy
4:13 PM 37.4 °F 31.4 °F 28.9 °F 71% 29.97 in 10.0 mi South 8.1 mph - N/A   Overcast
4:33 PM 37.4 °F 32.1 °F 28.8 °F 71% 29.98 in 10.0 mi South 6.9 mph - N/A   Overcast
4:53 PM 37.2 °F 34.7 °F 28.9 °F 72% 29.99 in 10.0 mi SSW 3.5 mph - N/A   Scattered Clouds
5:13 PM 36.9 °F 31.4 °F 29.1 °F 74% 29.98 in 10.0 mi South 6.9 mph - N/A   Mostly Cloudy
5:33 PM 36.5 °F 31.8 °F 30.0 °F 77% 29.97 in 10.0 mi South 5.8 mph - N/A   Overcast
5:54 PM 36.5 °F 32.7 °F 29.8 °F 77% 29.97 in 10.0 mi South 4.6 mph - N/A   Overcast
6:14 PM 36.7 °F 32.0 °F 29.7 °F 76% 29.96 in 10.0 mi SSE 5.8 mph - N/A   Overcast
6:34 PM 36.5 °F 31.8 °F 30.0 °F 77% 29.96 in 10.0 mi South 5.8 mph - N/A   Overcast
6:54 PM 36.5 °F 31.0 °F 30.2 °F 78% 29.95 in 10.0 mi SSE 6.9 mph - N/A   Overcast
7:14 PM 37.0 °F 31.6 °F 30.2 °F 76% 29.95 in 10.0 mi SSE 6.9 mph - N/A   Overcast
7:34 PM 37.2 °F 31.2 °F 30.7 °F 77% 29.94 in 10.0 mi South 8.1 mph - N/A   Overcast
7:54 PM 37.4 °F 32.1 °F 31.1 °F 78% 29.95 in 10.0 mi South 6.9 mph - N/A   Overcast
8:14 PM 37.4 °F 32.1 °F 32.0 °F 81% 29.94 in 10.0 mi South 6.9 mph - N/A   Overcast
8:34 PM 37.4 °F 30.8 °F 32.0 °F 81% 29.94 in 10.0 mi South 9.2 mph - N/A   Overcast
8:55 PM 37.6 °F 30.5 °F 32.2 °F 81% 29.94 in 10.0 mi South 10.4 mph - N/A   Overcast
9:35 PM 37.4 °F 32.8 °F 32.5 °F 83% 29.94 in 10.0 mi South 5.8 mph - N/A   Overcast
9:55 PM 37.8 °F 33.3 °F 32.9 °F 83% 29.94 in 10.0 mi South 5.8 mph - N/A   Overcast
10:15 PM 37.8 °F 33.3 °F 32.9 °F 83% 29.93 in 10.0 mi SW 5.8 mph - N/A   Overcast
10:35 PM 37.4 °F 33.8 °F 32.9 °F 84% 29.93 in 10.0 mi South 4.6 mph - N/A   Overcast
10:55 PM 37.4 °F 31.4 °F 33.1 °F 84% 29.92 in 10.0 mi South 8.1 mph - N/A   Overcast
11:10 PM 37.4 °F 30.8 °F 32.9 °F 84% 29.92 in 10.0 mi South 9.2 mph - N/A   Overcast
11:32 PM 37.8 °F 31.8 °F 33.1 °F 83% 29.92 in 10.0 mi South 8.1 mph - N/A   Overcast
11:52 PM 37.8 °F 33.3 °F 33.4 °F 84% 29.91 in 10.0 mi South 5.8 mph - N/A   Overcast